Wind_Speed
23 23 21 22 21 18 21 23 22 20 18 17 11 15 18 19 22 27 32 34 35 35 32 35 36 36 38 38 38 37 41 41 40 37 37 41 43 42 42 35 38 43 38 34 35 33 32 32 32
24 24 24 24 22 18 17 23 24 24 21 21 20 23 22 23 27 27 30 31 31 31 32 33 35 37 37 39 40 38 35 35 34 34 36 37 41 43 38 41 44 39 36 34 33 31 29 28 26
26 26 27 24 23 20 18 22 24 25 25 23 24 25 27 27 28 29 31 32 32 30 32 36 39 37 35 37 39 34 30 29 31 33 37 38 39 42 43 43 38 34 30 27 27 27 27 27 27
29 26 25 22 21 21 21 22 24 28 27 27 26 27 29 31 31 31 33 31 29 29 32 32 31 33 31 33 34 32 31 33 35 40 44 44 43 37 36 35 32 27 26 26 26 28 30 31 32
22 22 21 21 22 22 22 25 27 28 29 30 28 29 31 31 33 33 34 34 32 32 34 32 32 27 26 28 29 31 33 35 39 40 38 37 38 35 32 28 27 28 26 27 27 29 32 35 38
22 22 20 20 19 24 24 25 27 29 30 31 31 31 31 32 33 32 34 35 37 36 33 28 26 22 19 18 23 28 33 36 38 36 33 31 27 25 25 27 28 30 30 31 32 33 37 41 41
26 24 22 21 19 25 28 29 30 31 32 31 31 31 31 34 34 36 36 35 32 23 21 29 24 17 18 23 27 29 31 33 33 31 28 25 23 25 26 28 27 30 34 34 37 41 44 47 44
29 30 27 23 21 27 31 33 32 32 32 33 31 30 30 33 34 34 33 33 29 21 24 24 26 24 24 28 29 31 34 30 29 26 24 25 24 26 26 30 34 37 38 41 43 44 48 49 45
31 31 26 19 24 28 29 34 34 33 31 32 30 30 30 31 32 31 34 35 31 29 28 30 30 30 34 39 38 37 38 27 23 23 24 25 31 32 32 37 43 45 47 53 55 53 55 59 63
33 31 25 19 26 29 32 37 33 32 32 31 30 31 34 32 30 32 29 29 32 34 34 38 37 32 31 40 45 42 39 31 27 27 31 34 36 39 42 46 51 57 58 56 56 58 61 68 73
32 33 26 25 29 30 34 36 33 31 33 31 30 29 34 33 30 29 29 33 31 36 36 41 38 37 44 47 49 41 37 34 31 29 33 36 43 49 49 54 61 60 63 62 63 66 69 69 73
29 30 30 27 27 29 30 31 31 32 31 31 31 28 32 30 30 30 32 33 37 40 43 45 39 32 40 41 40 36 39 37 37 40 41 45 50 53 54 57 59 62 64 66 70 68 66 71 75
29 29 31 29 26 27 28 27 29 33 33 32 30 27 26 29 35 35 34 37 40 43 45 42 36 32 37 34 40 44 43 44 43 42 44 47 47 48 53 61 62 64 66 67 67 72 76 80 86
29 29 29 26 24 25 28 28 28 30 31 33 31 26 25 25 33 41 39 40 42 45 45 42 39 39 40 46 48 48 48 50 49 48 47 47 49 52 58 59 62 64 64 69 71 75 78 82 83
30 28 25 22 22 26 28 29 29 31 31 31 32 31 31 28 28 41 42 45 49 47 45 46 44 39 46 52 56 51 49 50 48 47 48 52 55 60 63 60 58 64 69 70 74 75 78 77 78
30 28 23 19 24 28 28 26 27 27 30 32 32 32 32 31 30 34 37 50 55 50 44 44 49 53 55 48 45 45 45 48 48 49 54 59 63 63 66 63 66 71 70 69 75 74 74 74 79
29 28 25 23 25 27 27 27 27 26 28 31 32 32 29 29 29 30 31 35 40 45 50 50 48 39 38 41 42 45 47 48 49 53 55 58 62 64 61 65 68 68 69 74 74 74 75 76 78
29 29 27 26 25 28 28 27 27 27 27 28 29 31 29 29 25 25 25 26 32 37 34 34 37 40 44 46 47 48 47 47 51 55 57 60 59 61 64 69 69 69 71 75 76 76 75 75 77
30 29 29 26 26 28 29 29 28 26 27 28 28 28 29 27 29 30 32 32 32 32 36 41 43 47 47 47 47 47 47 50 53 56 58 57 61 64 70 72 71 72 73 76 76 75 74 76 78
31 29 29 28 27 29 31 29 29 28 27 28 27 28 31 31 31 32 33 34 36 36 40 45 46 43 46 48 48 48 49 51 52 53 54 57 61 68 72 74 74 75 77 76 77 74 74 77 80
32 32 27 25 29 30 30 30 30 31 30 29 29 29 30 32 32 31 30 32 36 38 38 40 40 44 45 47 48 50 51 50 50 52 57 62 66 75 77 77 77 76 75 76 74 75 76 78 83
35 31 29 29 30 29 30 32 33 33 32 32 31 32 33 34 34 32 31 31 33 38 37 40 42 43 47 50 48 49 49 48 51 56 61 68 72 77 77 77 76 75 76 75 74 75 78 80 83
38 33 33 33 31 32 32 34 35 34 34 35 35 33 34 36 36 35 34 34 35 36 41 40 40 43 45 44 44 47 49 50 53 58 63 69 75 75 77 76 74 75 75 73 75 75 80 83 87
39 37 34 33 34 34 32 33 36 33 35 35 34 34 35 36 36 35 35 36 36 37 37 38 39 42 43 44 46 48 50 53 56 60 66 74 74 76 77 73 73 74 74 74 76 78 82 84 88
44 39 38 33 33 37 33 32 38 35 34 35 33 35 36 36 34 33 34 37 38 37 38 39 40 42 44 45 47 50 53 57 59 64 70 74 77 78 74 72 73 73 73 74 78 82 84 88 91
45 42 39 41 36 35 34 35 36 37 37 37 35 35 35 35 34 34 36 36 35 37 39 41 43 45 45 46 49 52 57 59 63 68 74 77 79 74 73 73 74 73 73 75 81 84 89 90 93
51 47 43 40 39 36 38 39 41 41 39 41 39 36 37 38 38 39 38 37 36 38 40 42 44 47 47 49 53 56 60 63 64 73 74 77 76 73 73 73 72 71 74 80 84 89 91 90 92
57 53 49 46 46 40 37 40 46 46 42 42 42 40 40 41 41 42 42 42 42 42 43 45 47 47 48 50 55 59 61 61 71 73 76 76 74 72 72 70 70 74 78 83 87 90 91 93 88
62 57 54 52 48 49 44 42 48 49 48 46 46 44 43 43 44 44 44 44 46 46 46 47 48 50 52 54 57 59 59 67 72 75 77 74 73 72 71 71 72 77 83 85 89 92 91 87 84
67 63 60 56 52 50 51 48 54 56 52 50 48 47 46 46 46 46 46 47 48 48 49 50 51 52 54 56 55 58 64 70 73 75 75 75 73 71 72 74 77 81 85 89 93 92 86 83 78
Wind_Direction
264 267 274 269 255 254 251 249 262 267 266 267 255 266 259 249 254 253 249 256 260 261 266 272 278 285 286 287 288 289 284 282 281 286 277 285 283 285 292 295 303 307 302 298 296 293 290 288 288
263 268 271 263 255 244 252 240 253 262 264 265 260 247 249 252 241 247 252 259 262 269 276 279 280 285 287 287 291 288 288 281 277 276 279 279 283 287 292 300 303 302 301 297 295 294 295 295 294
265 266 267 256 251 248 251 246 246 256 262 268 270 265 260 253 250 251 257 270 272 272 277 283 288 290 297 295 289 285 283 280 277 276 278 284 292 295 296 296 297 297 297 299 299 300 300 299 298
268 265 260 251 249 253 256 254 249 248 256 261 266 269 269 269 265 268 272 269 274 284 289 290 297 300 304 302 291 285 280 277 283 284 282 286 294 297 297 296 296 295 297 298 300 301 303 302 299
268 255 251 247 249 250 255 257 257 255 252 256 262 267 269 269 268 268 264 269 279 285 289 290 292 297 297 302 295 288 285 282 282 285 290 292 292 293 294 293 293 295 296 297 299 301 303 305 299
268 259 250 250 252 258 251 250 258 258 258 258 258 265 269 266 266 264 262 267 280 285 287 300 293 295 298 303 303 302 294 288 285 286 288 286 288 289 291 294 297 297 294 294 296 301 305 306 303
266 264 257 254 255 255 255 256 257 256 256 254 257 261 263 265 264 264 267 270 276 278 298 290 307 293 299 299 298 297 297 295 293 292 287 286 287 288 292 293 297 303 301 297 295 300 304 300 296
265 265 261 262 262 261 262 266 261 259 256 256 256 257 261 263 264 267 267 267 265 281 300 301 310 280 297 311 307 301 308 302 301 294 289 287 287 290 295 298 298 293 291 295 298 296 300 301 296
264 265 269 263 259 257 261 262 263 265 259 258 258 260 262 261 267 260 265 261 261 274 287 297 309 293 293 300 316 315 309 298 292 295 291 287 282 283 295 305 310 306 302 300 297 289 289 300 302
262 261 264 256 254 256 258 257 261 266 265 268 271 269 268 266 264 258 269 263 266 271 278 293 293 286 294 306 311 313 310 292 284 289 283 289 291 292 290 299 301 303 301 299 298 298 296 302 303
267 262 260 258 259 259 262 269 278 275 279 279 279 274 277 276 278 271 272 272 278 278 283 295 300 294 296 297 309 311 308 292 286 288 295 297 290 288 293 296 301 300 299 298 299 300 303 305 307
276 267 260 261 269 267 266 269 272 275 276 276 276 276 281 290 283 281 277 274 276 281 290 297 298 301 300 301 311 315 314 305 299 298 297 295 299 300 299 301 302 301 297 296 299 299 300 304 308
277 268 260 260 267 265 265 266 267 271 271 271 274 279 283 291 279 280 284 281 277 279 283 289 290 294 297 301 311 315 313 310 301 297 299 302 304 305 309 311 305 299 300 301 300 300 301 303 305
276 267 263 260 262 261 263 264 263 260 265 269 269 263 265 278 275 276 286 281 283 283 288 287 291 293 295 299 306 307 307 311 310 307 306 306 307 310 312 306 306 304 303 302 303 301 301 303 305
277 270 264 257 261 259 258 261 261 265 268 267 267 266 263 256 267 257 271 277 278 279 282 288 295 289 293 299 302 303 302 305 308 305 301 299 301 309 310 307 308 306 305 307 305 307 307 308 310
274 271 265 247 256 258 259 261 261 265 269 271 272 271 272 269 264 260 260 257 269 277 281 284 287 287 292 298 300 301 304 304 302 299 299 299 303 308 307 303 305 308 309 310 309 310 311 313 314
271 265 256 245 250 257 258 260 261 264 272 277 278 273 269 271 269 271 271 270 270 273 278 286 290 294 295 301 301 302 302 301 300 301 303 305 309 309 308 311 312 311 311 311 313 315 315 316 315
269 263 256 248 251 255 260 259 261 267 274 275 282 281 279 275 278 282 282 278 276 276 279 287 292 293 296 301 301 301 301 302 302 304 307 308 307 310 314 314 315 311 311 316 315 316 315 315 316
267 258 257 250 253 255 259 258 259 266 274 277 278 285 286 285 285 284 284 284 287 290 292 294 293 297 298 299 301 303 303 304 305 307 306 305 310 312 315 314 310 312 316 318 318 317 316 315 316
264 252 256 256 253 253 256 259 261 260 267 276 284 284 284 286 287 287 290 293 297 296 293 293 296 298 299 302 304 303 301 302 303 303 307 313 314 315 313 313 314 315 319 318 317 316 315 313 314
263 252 256 264 258 256 255 258 259 261 264 270 275 280 281 279 280 286 292 295 294 291 290 292 293 296 296 298 296 298 298 297 301 303 310 315 315 316 315 314 315 317 317 318 316 317 314 314 319
255 255 255 252 253 254 253 255 256 257 261 263 266 271 279 282 283 285 284 285 284 283 282 285 290 291 289 292 292 292 293 300 303 309 313 315 316 315 314 315 315 318 318 318 317 318 318 319 321
257 254 252 252 248 250 251 253 251 255 257 258 261 267 272 277 279 280 279 277 276 278 278 279 284 286 288 291 292 294 299 302 305 309 314 315 313 313 313 316 317 318 317 316 319 319 319 320 320
260 252 252 251 248 253 254 256 262 258 258 260 263 266 269 272 275 278 280 281 282 282 283 285 285 283 288 292 295 300 303 304 306 310 312 312 312 314 315 319 317 317 317 319 319 318 318 320 320
259 257 250 248 249 250 253 254 258 262 264 265 264 265 266 269 275 278 279 280 282 285 286 287 285 289 292 295 299 304 306 307 308 310 311 313 316 318 319 317 317 317 319 320 318 318 320 321 322
257 257 253 247 249 248 249 248 253 259 262 263 265 268 271 275 276 276 278 282 285 287 287 289 290 292 295 297 303 306 307 309 311 311 316 318 318 317 319 319 318 316 317 315 319 321 322 322 322
253 252 250 247 250 250 247 251 254 254 257 263 265 269 274 276 281 285 286 286 286 287 288 291 293 294 296 299 304 304 309 312 311 316 317 317 319 319 320 317 315 315 316 317 321 322 321 320 321
250 249 248 244 241 244 247 252 257 258 258 261 265 267 269 273 275 277 280 284 287 287 290 294 296 298 299 302 303 306 311 311 316 315 317 318 319 319 316 314 316 317 318 320 321 320 319 319 319
246 247 250 250 247 242 242 245 254 255 257 259 261 264 268 271 275 278 282 285 288 291 295 296 298 300 304 306 308 309 311 314 314 316 318 318 316 315 315 316 318 319 320 321 320 318 318 319 319
247 246 245 247 249 248 246 250 253 252 252 255 260 263 266 269 273 277 282 284 287 292 294 296 299 302 303 306 307 309 312 314 315 316 315 314 314 316 317 318 318 320 321 320 319 318 319 319 320
Height
10973 10973 10975 10975 10977 10978 10978 10977 10976 10976 10978 10979 10980 10978 10979 10981 10982 10981 10980 10981 10982 10981 10980 10979 10978 10976 10975 10973 10971 10969 10966 10965 10964 10964 10962 10961 10960 10957 10956 10953 10950 10947 10944 10942 10939 10937 10936 10934 10933
10969 10970 10970 10971 10973 10975 10976 10975 10974 10973 10974 10975 10977 10977 10977 10977 10977 10977 10978 10978 10978 10978 10977 10974 10974 10972 10970 10968 10965 10964 10962 10961 10960 10958 10957 10955 10953 10951 10949 10946 10943 10940 10938 10935 10933 10931 10929 10928 10926
10965 10966 10966 10966 10968 10970 10972 10971 10972 10971 10971 10971 10972 10973 10973 10973 10973 10972 10972 10972 10972 10971 10971 10970 10968 10966 10964 10962 10960 10958 10957 10955 10953 10952 10951 10949 10947 10945 10942 10939 10935 10933 10930 10928 10926 10925 10923 10922 10920
10960 10962 10961 10963 10964 10966 10967 10967 10968 10968 10968 10967 10967 10967 10967 10967 10967 10968 10967 10967 10966 10965 10964 10964 10962 10959 10958 10956 10954 10952 10950 10948 10947 10946 10944 10942 10940 10937 10934 10932 10929 10926 10924 10922 10920 10918 10916 10915 10912
10955 10957 10958 10959 10960 10961 10962 10962 10961 10963 10963 10964 10964 10963 10962 10962 10961 10962 10962 10963 10962 10961 10961 10960 10958 10955 10952 10950 10948 10946 10944 10941 10940 10938 10937 10935 10933 10930 10927 10925 10923 10920 10917 10915 10913 10911 10909 10907 10904
10951 10953 10955 10956 10958 10955 10956 10957 10956 10955 10957 10958 10959 10958 10958 10957 10956 10957 10957 10958 10958 10957 10957 10956 10952 10949 10946 10944 10943 10941 10938 10936 10934 10933 10930 10926 10924 10922 10920 10917 10916 10913 10910 10908 10905 10903 10900 10897 10894
10946 10948 10951 10952 10954 10951 10950 10951 10949 10949 10949 10950 10952 10953 10952 10950 10950 10950 10951 10953 10953 10952 10951 10950 10948 10944 10942 10941 10939 10937 10934 10931 10929 10927 10924 10921 10919 10916 10912 10909 10908 10906 10904 10901 10898 10895 10891 10886 10882
10940 10942 10945 10948 10948 10946 10944 10943 10942 10942 10943 10944 10946 10946 10946 10945 10945 10947 10947 10948 10948 10947 10946 10945 10944 10940 10938 10937 10935 10932 10929 10925 10924 10922 10919 10916 10912 10910 10907 10906 10903 10900 10897 10894 10890 10886 10880 10875 10871
10934 10936 10940 10944 10941 10939 10938 10935 10935 10935 10938 10939 10941 10942 10941 10941 10943 10942 10943 10943 10944 10943 10941 10940 10938 10936 10935 10932 10929 10927 10925 10921 10918 10916 10912 10910 10907 10906 10903 10900 10897 10893 10889 10885 10879 10873 10867 10862 10857
10928 10930 10935 10938 10933 10932 10931 10926 10930 10930 10932 10936 10939 10938 10935 10935 10936 10937 10937 10938 10938 10936 10934 10933 10933 10931 10929 10926 10924 10922 10919 10915 10914 10911 10908 10905 10903 10899 10895 10891 10887 10883 10878 10872 10866 10860 10854 10848 10842
10923 10925 10929 10929 10928 10929 10927 10926 10927 10926 10927 10930 10932 10932 10929 10928 10931 10933 10931 10931 10931 10929 10929 10927 10926 10926 10923 10921 10920 10916 10913 10910 10908 10906 10901 10899 10894 10892 10889 10883 10877 10871 10865 10858 10852 10845 10838 10832 10825
10918 10920 10922 10923 10924 10923 10923 10923 10922 10920 10920 10922 10922 10926 10923 10922 10924 10925 10925 10924 10924 10922 10923 10923 10922 10920 10918 10916 10915 10911 10908 10904 10902 10899 10895 10891 10887 10883 10879 10873 10866 10860 10853 10846 10839 10831 10824 10815 10807
10913 10914 10916 10917 10917 10917 10916 10917 10918 10913 10913 10914 10916 10918 10920 10919 10917 10918 10920 10920 10919 10919 10919 10917 10916 10915 10913 10910 10908 10904 10900 10898 10895 10892 10887 10883 10878 10873 10868 10862 10855 10848 10841 10834 10826 10818 10809 10799 10791
10907 10909 10910 10912 10911 10911 10909 10910 10911 10907 10907 10906 10909 10912 10915 10916 10915 10912 10913 10912 10911 10911 10912 10910 10909 10908 10906 10903 10901 10898 10894 10890 10887 10882 10877 10872 10867 10862 10858 10851 10843 10835 10829 10822 10812 10804 10794 10783 10773
10900 10902 10905 10907 10905 10903 10902 10904 10904 10903 10902 10901 10901 10904 10907 10911 10911 10910 10908 10907 10905 10906 10906 10904 10903 10900 10899 10897 10894 10890 10885 10881 10877 10873 10869 10863 10859 10855 10849 10841 10834 10826 10817 10806 10797 10787 10777 10765 10754
10895 10897 10899 10901 10899 10896 10899 10899 10900 10898 10895 10894 10896 10899 10899 10902 10903 10902 10902 10902 10900 10900 10899 10898 10897 10895 10893 10889 10885 10881 10877 10874 10870 10866 10861 10856 10850 10844 10839 10832 10823 10812 10801 10791 10781 10770 10759 10748 10735
10890 10891 10891 10893 10893 10892 10894 10895 10894 10894 10892 10890 10891 10893 10892 10893 10894 10895 10896 10895 10895 10894 10892 10890 10888 10885 10883 10881 10877 10873 10870 10865 10861 10858 10852 10846 10839 10832 10824 10816 10808 10798 10787 10777 10765 10753 10740 10729 10719
10883 10884 10886 10888 10889 10888 10889 10890 10889 10889 10889 10888 10888 10888 10888 10888 10887 10886 10887 10888 10888 10885 10884 10883 10880 10878 10874 10871 10868 10865 10861 10857 10853 10848 10842 10835 10828 10819 10810 10801 10792 10783 10772 10761 10749 10736 10724 10714 10704
10876 10878 10879 10884 10885 10884 10885 10886 10885 10884 10882 10881 10882 10884 10883 10881 10881 10880 10879 10879 10878 10876 10875 10873 10871 10868 10865 10863 10860 10857 10853 10849 10844 10839 10833 10825 10816 10808 10799 10788 10780 10768 10757 10744 10733 10720 10709 10695 10689
10870 10873 10875 10878 10879 10879 10878 10881 10881 10880 10879 10878 10877 10878 10878 10876 10875 10874 10873 10871 10870 10869 10868 10866 10863 10860 10857 10855 10852 10849 10845 10842 10837 10831 10823 10814 10805 10796 10787 10776 10764 10753 10741 10729 10718 10707 10697 10683 10671
10864 10867 10871 10874 10873 10874 10875 10875 10875 10875 10875 10875 10873 10871 10871 10872 10871 10871 10869 10867 10865 10863 10861 10860 10857 10855 10853 10851 10846 10842 10838 10834 10828 10821 10813 10803 10794 10784 10773 10761 10750 10738 10727 10715 10705 10694 10684 10668 10651
10857 10860 10864 10865 10866 10867 10869 10869 10869 10869 10870 10870 10868 10866 10864 10863 10865 10865 10864 10863 10862 10858 10857 10855 10853 10850 10848 10844 10839 10835 10830 10825 10819 10810 10802 10793 10782 10772 10761 10749 10737 10725 10713 10701 10690 10679 10665 10652 10637
10847 10853 10856 10857 10859 10859 10860 10860 10859 10862 10863 10863 10862 10861 10859 10858 10858 10858 10858 10857 10857 10853 10851 10850 10847 10844 10841 10836 10831 10827 10822 10816 10809 10802 10792 10783 10774 10762 10750 10737 10723 10711 10701 10689 10676 10663 10650 10638 10624
10839 10845 10848 10850 10852 10853 10855 10854 10851 10855 10855 10855 10856 10854 10853 10851 10851 10850 10850 10848 10848 10847 10846 10843 10839 10837 10834 10829 10824 10819 10813 10807 10799 10791 10783 10773 10762 10750 10737 10721 10710 10700 10687 10674 10662 10650 10638 10625 10610
10829 10835 10840 10843 10844 10844 10849 10849 10844 10844 10846 10846 10847 10846 10845 10845 10844 10844 10843 10840 10839 10839 10837 10835 10832 10828 10825 10820 10816 10809 10803 10796 10789 10781 10772 10761 10747 10732 10720 10709 10697 10684 10672 10661 10651 10637 10622 10606 10589
10820 10825 10829 10831 10833 10836 10840 10841 10837 10837 10836 10836 10837 10837 10836 10835 10835 10835 10834 10833 10833 10830 10827 10825 10822 10819 10816 10811 10805 10799 10793 10785 10777 10768 10756 10743 10731 10718 10706 10692 10681 10672 10663 10651 10637 10620 10604 10589 10574
10808 10811 10816 10821 10823 10826 10829 10830 10827 10826 10829 10825 10826 10828 10827 10826 10826 10825 10825 10824 10823 10821 10819 10817 10813 10810 10807 10801 10795 10789 10782 10773 10764 10753 10741 10730 10717 10704 10692 10683 10674 10663 10650 10635 10620 10605 10590 10577 10563
10792 10797 10803 10807 10811 10815 10818 10818 10814 10815 10818 10818 10818 10819 10819 10817 10817 10816 10816 10815 10814 10812 10811 10807 10803 10800 10795 10791 10784 10777 10770 10760 10751 10741 10730 10717 10704 10694 10685 10674 10663 10649 10634 10621 10608 10593 10578 10562 10547
10777 10785 10791 10796 10802 10804 10806 10807 10800 10801 10803 10805 10806 10808 10808 10808 10807 10806 10806 10805 10803 10802 10800 10796 10791 10787 10783 10778 10771 10763 10756 10748 10740 10729 10716 10705 10696 10686 10674 10662 10649 10635 10623 10610 10595 10579 10564 10548 10532
10761 10770 10776 10782 10789 10794 10798 10800 10787 10785 10791 10794 10795 10798 10798 10798 10798 10798 10797 10795 10793 10792 10789 10784 10781 10777 10773 10767 10761 10754 10747 10738 10728 10716 10705 10695 10685 10673 10660 10647 10635 10622 10609 10596 10580 10563 10548 10533 10519